[TLELIST] Archives

 

[TLELIST] Current TLEs

February 21st 2024 PDT

HST 1 20580U 90037B 24052.07226465 .00006285 00000-0 30848-3 0 9996 2 20580 28.4699 48.7327 0002703 196.5822 163.4681 15.16029186659492 ISS (ZARYA) 1 25544U 98067A 24052.48026470 .00017399 00000-0 30993-3 0 9990 2 25544 51.6400 173.7290 0001890 294.2047 185.3654 15.50204849440450 CXO 1 25867U 99040B 24054.16120892 .00000889 00000-0 00000+0 0 9998 2 25867 38.9006 165.4810 8982588 287.8279 0.4397 0.37807402 25283 ...Continue Reading

[TLELIST] Current TLEs

February 20th 2024 PDT

HST 1 20580U 90037B 24051.01897248 .00006523 00000-0 32065-3 0 9990 2 20580 28.4699 55.7708 0002838 185.0999 174.9564 15.16016443659332 ISS (ZARYA) 1 25544U 98067A 24051.37265806 .00017376 00000-0 30995-3 0 9992 2 25544 51.6404 179.2207 0001763 287.4173 126.8856 15.50165587440286 CXO 1 25867U 99040B 24051.51598046 .00000801 00000-0 00000+0 0 9998 2 25867 38.8613 165.7697 8984714 287.5936 0.3606 0.37805981 25273 ...Continue Reading

[TLELIST] Current TLEs

February 19th 2024 PDT

HST 1 20580U 90037B 24049.70234483 .00007307 00000-0 36051-3 0 9999 2 20580 28.4700 64.5680 0002898 170.9484 189.1161 15.15999181658877 ISS (ZARYA) 1 25544U 98067A 24050.40591910 .00017388 00000-0 31053-3 0 9992 2 25544 51.6406 184.0123 0001804 287.9392 127.8783 15.50131483440135 CXO 1 25867U 99040B 24051.51598046 .00000801 00000-0 00000+0 0 9998 2 25867 38.8613 165.7697 8984714 287.5936 0.3606 0.37805981 25273 ...Continue Reading

[TLELIST] Current TLEs

February 18th 2024 PDT

HST 1 20580U 90037B 24048.71486365 .00007140 00000-0 35223-3 0 9992 2 20580 28.4698 71.1658 0002942 160.2792 199.7914 15.15984471658729 ISS (ZARYA) 1 25544U 98067A 24049.43612303 .00022294 00000-0 39608-3 0 9999 2 25544 51.6400 188.8168 0001931 283.9340 116.4488 15.50102298439989 CXO 1 25867U 99040B 24051.51598046 .00000801 00000-0 00000+0 0 9998 2 25867 38.8613 165.7697 8984714 287.5936 0.3606 0.37805981 25273 ...Continue Reading

[TLELIST] Current TLEs

February 17th 2024 PDT

HST 1 20580U 90037B 24047.46404033 .00008594 00000-0 42603-3 0 9999 2 20580 28.4695 79.5234 0003010 147.2751 212.8028 15.15968121658531 ISS (ZARYA) 1 25544U 98067A 24048.28174975 .00021751 00000-0 38766-3 0 9990 2 25544 51.6403 194.5308 0001917 282.3859 152.0269 15.50027599439808 CXO 1 25867U 99040B 24048.87165384 .00000696 00000-0 00000-0 0 9991 2 25867 38.8200 166.0665 8986503 287.3514 0.4282 0.37807568 14117 ...Continue Reading

[TLELIST] Current TLEs

February 17th 2024 PDT

HST 1 20580U 90037B 24047.46404033 .00008594 00000-0 42603-3 0 9999 2 20580 28.4695 79.5234 0003010 147.2751 212.8028 15.15968121658531 ISS (ZARYA) 1 25544U 98067A 24048.28174975 .00021751 00000-0 38766-3 0 9990 2 25544 51.6403 194.5308 0001917 282.3859 152.0269 15.50027599439808 CXO 1 25867U 99040B 24048.87165384 .00000696 00000-0 00000-0 0 9991 2 25867 38.8200 166.0665 8986503 287.3514 0.4282 0.37807568 14117 ...Continue Reading

[TLELIST] Current TLEs

February 17th 2024 PDT

HST 1 20580U 90037B 24047.46404033 .00008594 00000-0 42603-3 0 9999 2 20580 28.4695 79.5234 0003010 147.2751 212.8028 15.15968121658531 ISS (ZARYA) 1 25544U 98067A 24048.28174975 .00021751 00000-0 38766-3 0 9990 2 25544 51.6403 194.5308 0001917 282.3859 152.0269 15.50027599439808 CXO 1 25867U 99040B 24048.87165384 .00000696 00000-0 00000-0 0 9991 2 25867 38.8200 166.0665 8986503 287.3514 0.4282 0.37807568 14117 ...Continue Reading

[TLELIST] Current TLEs

February 17th 2024 PDT

HST 1 20580U 90037B 24047.46404033 .00008594 00000-0 42603-3 0 9999 2 20580 28.4695 79.5234 0003010 147.2751 212.8028 15.15968121658531 ISS (ZARYA) 1 25544U 98067A 24048.28174975 .00021751 00000-0 38766-3 0 9990 2 25544 51.6403 194.5308 0001917 282.3859 152.0269 15.50027599439808 CXO 1 25867U 99040B 24048.87165384 .00000696 00000-0 00000-0 0 9991 2 25867 38.8200 166.0665 8986503 287.3514 0.4282 0.37807568 14117 ...Continue Reading

[TLELIST] Current TLEs

February 16th 2024 PDT

HST 1 20580U 90037B 24047.20070745 .00007992 00000-0 39562-3 0 9991 2 20580 28.4694 81.2828 0003016 144.7529 215.3263 15.15962695658753 ISS (ZARYA) 1 25544U 98067A 24047.24780302 .00022658 00000-0 40403-3 0 9990 2 25544 51.6402 199.6544 0001837 274.3231 146.8532 15.49986289439645 CXO 1 25867U 99040B 24048.87165384 .00000696 00000-0 00000-0 0 9991 2 25867 38.8200 166.0665 8986503 287.3514 0.4282 0.37807568 14117 ...Continue Reading

[TLELIST] Current TLEs

February 16th 2024 PDT

HST 1 20580U 90037B 24047.20070745 .00007992 00000-0 39562-3 0 9991 2 20580 28.4694 81.2828 0003016 144.7529 215.3263 15.15962695658753 ISS (ZARYA) 1 25544U 98067A 24047.24780302 .00022658 00000-0 40403-3 0 9990 2 25544 51.6402 199.6544 0001837 274.3231 146.8532 15.49986289439645 CXO 1 25867U 99040B 24048.87165384 .00000696 00000-0 00000-0 0 9991 2 25867 38.8200 166.0665 8986503 287.3514 0.4282 0.37807568 14117 ...Continue Reading
  • This mailing list is a public mailing list - anyone may join or leave, at any time.
  • This mailing list is announce-only.

International Space Station (ISS) / Hubble Space Telescope (HST) / Chandra X-Ray Observatory Orbital Data via EMAIL

Privacy Policy:

Private list